Location: Harwich
(41.7160°N, 69.9939°W)
Time: 10:44:17
(UTC+02:00)

EO-79 - Visible Passes

Search period start: 16 September 2024 00:00
Search period end: 26 September 2024 00:00
Orbit: 553 x 567 km, 98.1° (Epoch: 15 September)

Date Brightness Start Highest point End Pass type
(mag) Time Alt. Az. Time Alt. Az. Time Alt. Az.
16 Sep ? 09:39:49 10° NE 09:43:23 30° E 09:43:24 30° E visible
16 Sep ? 11:15:02 10° NNW 11:18:05 21° WNW 11:19:19 18° W visible
17 Sep ? 09:38:41 10° NE 09:42:08 29° E 09:42:08 29° E visible
17 Sep ? 11:13:50 10° NNW 11:16:56 22° WNW 11:18:03 19° W visible
18 Sep ? 09:37:31 10° NE 09:40:50 28° E 09:40:50 28° E visible
18 Sep ? 11:12:36 10° NNW 11:15:45 22° WNW 11:16:45 20° W visible
19 Sep ? 09:36:20 10° NE 09:39:30 27° E 09:39:30 27° E visible
19 Sep ? 11:11:20 10° NNW 11:14:31 23° WNW 11:15:24 21° W visible
20 Sep ? 09:35:07 10° NE 09:38:08 25° E 09:38:08 25° E visible
20 Sep ? 11:10:02 10° NNW 11:13:16 24° WNW 11:14:02 22° W visible
21 Sep ? 09:33:51 10° NE 09:36:44 24° E 09:36:44 24° E visible
21 Sep ? 11:08:42 10° NNW 11:11:59 25° WNW 11:12:37 24° W visible
22 Sep ? 09:32:34 10° NE 09:35:17 23° E 09:35:17 23° E visible
22 Sep ? 11:07:19 10° NNW 11:10:40 26° WNW 11:11:11 25° W visible
23 Sep ? 09:31:15 10° NE 09:33:48 22° E 09:33:48 22° E visible
23 Sep ? 11:05:56 10° N 11:09:19 27° WNW 11:09:42 26° W visible
24 Sep ? 09:29:55 10° NE 09:32:18 21° ENE 09:32:18 21° ENE visible
24 Sep ? 11:04:29 10° N 11:07:55 28° WNW 11:08:12 27° WNW visible
25 Sep ? 09:28:32 10° NE 09:30:45 20° ENE 09:30:45 20° ENE visible
25 Sep ? 11:03:01 10° N 11:06:29 29° WNW 11:06:39 29° WNW visible
